Time,TemperatureF,DewpointF,PressureIn,WindDirection,WindDirectionDegrees,WindSpeedMPH,WindSpeedGustMPH,Humidity,HourlyPrecipIn,Conditions,Clouds,dailyrainin,SoftwareType,DateUTC
2013-06-22 00:01:00,72.8,63.6,30.05,SSE,153,0.0,0.0,73,0.00,,,0.00,Wunderground v.1.15,2013-06-22 04:01:00,
2013-06-22 00:05:00,72.8,64.0,30.05,SSE,153,0.0,1.0,74,0.00,,,0.00,Wunderground v.1.15,2013-06-22 04:05:00,
2013-06-22 00:08:00,72.7,63.9,30.06,SSE,153,0.0,1.0,74,0.00,,,0.00,Wunderground v.1.15,2013-06-22 04:08:00,
2013-06-22 00:10:00,72.6,63.8,30.06,SSE,153,0.0,1.0,74,0.00,,,0.00,Wunderground v.1.15,2013-06-22 04:10:00,
2013-06-22 00:11:00,72.6,63.8,30.06,SSE,153,1.0,1.0,74,0.00,,,0.00,Wunderground v.1.15,2013-06-22 04:11:00,
2013-06-22 00:16:00,72.4,64.0,30.06,SSE,153,0.0,1.0,75,0.00,,,0.00,Wunderground v.1.15,2013-06-22 04:16:00,
2013-06-22 00:21:00,72.4,64.0,30.06,SSE,153,0.0,0.0,75,0.00,,,0.00,Wunderground v.1.15,2013-06-22 04:21:00,
2013-06-22 00:26:00,71.9,63.9,30.06,SSE,153,0.0,1.0,76,0.00,,,0.00,Wunderground v.1.15,2013-06-22 04:26:00,
2013-06-22 00:31:00,72.0,64.0,30.06,SSE,153,0.0,1.0,76,0.00,,,0.00,Wunderground v.1.15,2013-06-22 04:31:00,
2013-06-22 00:37:00,71.7,63.7,30.05,SSE,153,1.0,1.0,76,0.00,,,0.00,Wunderground v.1.15,2013-06-22 04:37:00,
2013-06-22 00:42:00,71.2,64.0,30.05,SSE,153,1.0,1.0,78,0.00,,,0.00,Wunderground v.1.15,2013-06-22 04:42:00,
2013-06-22 00:47:00,70.8,63.6,30.05,SSE,153,1.0,1.0,78,0.00,,,0.00,Wunderground v.1.15,2013-06-22 04:47:00,
2013-06-22 00:53:00,70.7,63.9,30.05,SSE,153,0.0,1.0,79,0.00,,,0.00,Wunderground v.1.15,2013-06-22 04:53:00,
2013-06-22 00:58:00,71.2,64.0,30.04,SSE,153,0.0,1.0,78,0.00,,,0.00,Wunderground v.1.15,2013-06-22 04:58:00,
2013-06-22 01:04:00,71.3,63.7,30.04,SSE,153,1.0,1.0,77,0.00,,,0.00,Wunderground v.1.15,2013-06-22 05:04:00,
2013-06-22 01:09:00,71.5,63.5,30.04,SSE,153,1.0,1.0,76,0.00,,,0.00,Wunderground v.1.15,2013-06-22 05:09:00,
2013-06-22 01:14:00,71.4,63.1,30.04,SSE,153,0.0,1.0,75,0.00,,,0.00,Wunderground v.1.15,2013-06-22 05:14:00,
2013-06-22 01:20:00,71.7,63.4,30.04,SSE,153,1.0,1.0,75,0.00,,,0.00,Wunderground v.1.15,2013-06-22 05:20:00,
2013-06-22 01:25:00,71.7,63.4,30.04,SSE,153,1.0,1.0,75,0.00,,,0.00,Wunderground v.1.15,2013-06-22 05:25:00,
2013-06-22 01:30:00,71.6,62.9,30.03,SSE,153,1.0,1.0,74,0.00,,,0.00,Wunderground v.1.15,2013-06-22 05:30:00,
2013-06-22 01:36:00,71.6,62.9,30.04,SSE,153,1.0,2.0,74,0.00,,,0.00,Wunderground v.1.15,2013-06-22 05:36:00,
2013-06-22 01:41:00,71.5,62.8,30.04,SSE,153,1.0,1.0,74,0.00,,,0.00,Wunderground v.1.15,2013-06-22 05:41:00,
2013-06-22 01:46:00,71.4,62.7,30.04,SSE,153,1.0,2.0,74,0.00,,,0.00,Wunderground v.1.15,2013-06-22 05:46:00,
2013-06-22 01:52:00,71.2,62.5,30.03,SSE,153,1.0,1.0,74,0.00,,,0.00,Wunderground v.1.15,2013-06-22 05:52:00,
2013-06-22 01:57:00,71.0,62.3,30.03,SSE,153,0.0,1.0,74,0.00,,,0.00,Wunderground v.1.15,2013-06-22 05:57:00,
2013-06-22 02:02:00,71.0,62.3,30.04,SSE,153,0.0,1.0,74,0.00,,,0.00,Wunderground v.1.15,2013-06-22 06:02:00,
2013-06-22 02:08:00,70.9,62.2,30.03,SSE,153,1.0,2.0,74,0.00,,,0.00,Wunderground v.1.15,2013-06-22 06:08:00,
2013-06-22 02:14:00,70.8,62.1,30.03,SSE,153,1.0,1.0,74,0.00,,,0.00,Wunderground v.1.15,2013-06-22 06:14:00,
2013-06-22 02:19:00,70.6,61.9,30.03,SSE,153,1.0,2.0,74,0.00,,,0.00,Wunderground v.1.15,2013-06-22 06:19:00,
2013-06-22 02:24:00,70.6,61.9,30.03,SSE,153,1.0,1.0,74,0.00,,,0.00,Wunderground v.1.15,2013-06-22 06:24:00,
2013-06-22 02:30:00,70.6,61.5,30.02,SSE,153,1.0,1.0,73,0.00,,,0.00,Wunderground v.1.15,2013-06-22 06:30:00,
2013-06-22 02:36:00,70.6,61.5,30.02,SSE,153,2.0,2.0,73,0.00,,,0.00,Wunderground v.1.15,2013-06-22 06:36:00,
2013-06-22 02:42:00,70.8,61.3,30.02,SSE,153,1.0,2.0,72,0.00,,,0.00,Wunderground v.1.15,2013-06-22 06:42:00,
2013-06-22 02:47:00,70.9,61.0,30.02,SSE,153,2.0,3.0,71,0.00,,,0.00,Wunderground v.1.15,2013-06-22 06:47:00,
2013-06-22 02:52:00,70.9,61.0,30.02,SSE,153,2.0,4.0,71,0.00,,,0.00,Wunderground v.1.15,2013-06-22 06:52:00,
2013-06-22 02:58:00,70.8,60.9,30.02,SSE,153,3.0,4.0,71,0.00,,,0.00,Wunderground v.1.15,2013-06-22 06:58:00,
2013-06-22 03:03:00,70.8,60.9,30.02,SSE,153,3.0,5.0,71,0.00,,,0.00,Wunderground v.1.15,2013-06-22 07:03:00,
2013-06-22 03:08:00,70.8,60.5,30.02,SSE,153,3.0,5.0,70,0.00,,,0.00,Wunderground v.1.15,2013-06-22 07:08:00,
2013-06-22 03:14:00,70.9,60.6,30.01,SSE,153,3.0,4.0,70,0.00,,,0.00,Wunderground v.1.15,2013-06-22 07:14:00,
2013-06-22 03:19:00,70.9,60.6,30.01,SSE,153,3.0,4.0,70,0.00,,,0.00,Wunderground v.1.15,2013-06-22 07:19:00,
2013-06-22 03:24:00,70.9,60.2,30.00,SSE,153,3.0,7.0,69,0.00,,,0.00,Wunderground v.1.15,2013-06-22 07:24:00,
2013-06-22 03:30:00,70.9,60.2,30.00,SSE,167,3.0,6.0,69,0.00,,,0.00,Wunderground v.1.15,2013-06-22 07:30:00,
2013-06-22 03:35:00,70.9,60.2,30.00,South,172,4.0,6.0,69,0.00,,,0.00,Wunderground v.1.15,2013-06-22 07:35:00,
2013-06-22 03:40:00,71.0,60.3,30.00,South,188,5.0,6.0,69,0.00,,,0.00,Wunderground v.1.15,2013-06-22 07:40:00,
2013-06-22 03:46:00,71.0,60.3,30.00,SSW,196,5.0,7.0,69,0.00,,,0.00,Wunderground v.1.15,2013-06-22 07:46:00,
2013-06-22 03:51:00,71.0,60.3,30.00,SSW,194,5.0,6.0,69,0.00,,,0.00,Wunderground v.1.15,2013-06-22 07:51:00,
2013-06-22 03:56:00,71.0,60.3,29.99,SSW,196,4.0,6.0,69,0.00,,,0.00,Wunderground v.1.15,2013-06-22 07:56:00,
2013-06-22 04:02:00,71.1,60.4,29.99,SSW,204,4.0,5.0,69,0.00,,,0.00,Wunderground v.1.15,2013-06-22 08:02:00,
2013-06-22 04:07:00,71.0,60.3,29.99,SSW,204,4.0,7.0,69,0.00,,,0.00,Wunderground v.1.15,2013-06-22 08:07:00,
2013-06-22 04:12:00,71.0,60.3,29.99,SSW,205,4.0,5.0,69,0.00,,,0.00,Wunderground v.1.15,2013-06-22 08:12:00,
2013-06-22 04:17:00,70.9,60.2,29.99,SSW,206,5.0,7.0,69,0.00,,,0.00,Wunderground v.1.15,2013-06-22 08:17:00,
2013-06-22 04:23:00,70.9,60.2,29.99,SSW,206,5.0,5.0,69,0.00,,,0.00,Wunderground v.1.15,2013-06-22 08:23:00,
2013-06-22 04:28:00,70.8,60.5,29.99,SSW,205,4.0,7.0,70,0.00,,,0.00,Wunderground v.1.15,2013-06-22 08:28:00,
2013-06-22 04:33:00,70.9,60.6,29.99,SSW,209,5.0,7.0,70,0.00,,,0.00,Wunderground v.1.15,2013-06-22 08:33:00,
2013-06-22 04:39:00,71.0,60.7,29.99,SSW,205,5.0,7.0,70,0.00,,,0.00,Wunderground v.1.15,2013-06-22 08:39:00,
2013-06-22 04:45:00,70.9,60.6,29.99,SSW,206,5.0,5.0,70,0.00,,,0.00,Wunderground v.1.15,2013-06-22 08:45:00,
2013-06-22 04:50:00,70.9,60.6,29.99,SSW,199,4.0,4.0,70,0.00,,,0.00,Wunderground v.1.15,2013-06-22 08:50:00,
2013-06-22 04:55:00,70.9,61.0,29.99,SSW,213,5.0,7.0,71,0.00,,,0.00,Wunderground v.1.15,2013-06-22 08:55:00,
2013-06-22 05:01:00,70.9,61.0,29.99,SSW,209,5.0,6.0,71,0.00,,,0.00,Wunderground v.1.15,2013-06-22 09:01:00,
2013-06-22 05:07:00,70.8,60.9,29.98,SSW,208,4.0,6.0,71,0.00,,,0.00,Wunderground v.1.15,2013-06-22 09:07:00,
2013-06-22 05:12:00,70.8,60.9,29.98,SSW,208,4.0,6.0,71,0.00,,,0.00,Wunderground v.1.15,2013-06-22 09:12:00,
2013-06-22 05:17:00,70.7,61.2,29.98,SSW,210,5.0,7.0,72,0.00,,,0.00,Wunderground v.1.15,2013-06-22 09:17:00,
2013-06-22 05:23:00,70.7,61.2,29.98,SSW,209,5.0,7.0,72,0.00,,,0.00,Wunderground v.1.15,2013-06-22 09:23:00,
2013-06-22 05:29:00,70.6,61.5,29.98,SSW,206,4.0,7.0,73,0.00,,,0.00,Wunderground v.1.15,2013-06-22 09:29:00,
2013-06-22 05:34:00,70.4,61.3,29.98,SSW,206,3.0,4.0,73,0.00,,,0.00,Wunderground v.1.15,2013-06-22 09:34:00,
2013-06-22 05:39:00,70.4,61.3,29.99,SSW,206,2.0,4.0,73,0.00,,,0.00,Wunderground v.1.15,2013-06-22 09:39:00,
2013-06-22 05:44:00,70.3,61.6,30.00,SSW,206,2.0,4.0,74,0.00,,,0.00,Wunderground v.1.15,2013-06-22 09:44:00,
2013-06-22 05:49:00,70.3,61.6,30.00,SSW,206,2.0,6.0,74,0.00,,,0.00,Wunderground v.1.15,2013-06-22 09:49:00,
2013-06-22 05:55:00,70.3,61.6,29.99,SSW,206,3.0,4.0,74,0.00,,,0.00,Wunderground v.1.15,2013-06-22 09:55:00,
2013-06-22 06:00:00,70.3,61.6,29.99,SSW,206,3.0,3.0,74,0.00,,,0.00,Wunderground v.1.15,2013-06-22 10:00:00,
2013-06-22 06:06:00,70.4,61.7,29.99,SSW,206,3.0,5.0,74,0.00,,,0.00,Wunderground v.1.15,2013-06-22 10:06:00,
2013-06-22 06:11:00,70.4,61.7,29.99,SSW,206,3.0,4.0,74,0.00,,,0.00,Wunderground v.1.15,2013-06-22 10:11:00,
2013-06-22 06:17:00,70.4,61.7,29.99,SSW,206,3.0,4.0,74,0.00,,,0.00,Wunderground v.1.15,2013-06-22 10:17:00,
2013-06-22 06:22:00,70.4,61.7,29.99,SSW,206,3.0,4.0,74,0.00,,,0.00,Wunderground v.1.15,2013-06-22 10:22:00,
2013-06-22 06:27:00,70.6,62.3,29.99,SSW,206,4.0,7.0,75,0.00,,,0.00,Wunderground v.1.15,2013-06-22 10:27:00,
2013-06-22 06:33:00,70.7,62.0,29.99,SSW,206,4.0,5.0,74,0.00,,,0.00,Wunderground v.1.15,2013-06-22 10:33:00,
2013-06-22 06:38:00,70.6,62.3,30.00,SSW,206,4.0,5.0,75,0.00,,,0.00,Wunderground v.1.15,2013-06-22 10:38:00,
2013-06-22 06:43:00,70.7,62.4,29.99,SSW,206,4.0,5.0,75,0.00,,,0.00,Wunderground v.1.15,2013-06-22 10:43:00,
2013-06-22 06:48:00,70.8,62.5,29.99,SSW,206,5.0,7.0,75,0.00,,,0.00,Wunderground v.1.15,2013-06-22 10:48:00,
2013-06-22 06:54:00,70.8,62.5,29.99,SSW,200,5.0,7.0,75,0.00,,,0.00,Wunderground v.1.15,2013-06-22 10:54:00,
2013-06-22 06:59:00,70.9,62.6,29.99,SSW,211,6.0,8.0,75,0.00,,,0.00,Wunderground v.1.15,2013-06-22 10:59:00,
2013-06-22 07:05:00,71.1,62.8,29.99,SSW,207,6.0,7.0,75,0.00,,,0.00,Wunderground v.1.15,2013-06-22 11:05:00,
2013-06-22 07:11:00,71.3,63.0,29.99,SSW,203,6.0,7.0,75,0.00,,,0.00,Wunderground v.1.15,2013-06-22 11:11:00,
2013-06-22 07:17:00,71.7,63.4,30.00,SW,219,6.0,7.0,75,0.00,,,0.00,Wunderground v.1.15,2013-06-22 11:17:00,
2013-06-22 07:23:00,72.0,63.3,30.00,SW,223,5.0,7.0,74,0.00,,,0.00,Wunderground v.1.15,2013-06-22 11:23:00,
2013-06-22 07:29:00,72.2,63.4,30.00,SW,214,4.0,11.0,74,0.00,,,0.00,Wunderground v.1.15,2013-06-22 11:29:00,
2013-06-22 07:34:00,72.7,63.5,30.00,SW,221,5.0,7.0,73,0.00,,,0.00,Wunderground v.1.15,2013-06-22 11:34:00,
2013-06-22 07:39:00,72.9,63.7,30.00,SW,231,5.0,7.0,73,0.00,,,0.00,Wunderground v.1.15,2013-06-22 11:39:00,
2013-06-22 07:45:00,73.2,64.0,30.00,SW,218,4.0,6.0,73,0.00,,,0.00,Wunderground v.1.15,2013-06-22 11:45:00,
2013-06-22 07:51:00,73.5,64.3,30.00,SW,223,4.0,5.0,73,0.00,,,0.00,Wunderground v.1.15,2013-06-22 11:51:00,
2013-06-22 07:57:00,73.8,64.2,30.00,SW,215,5.0,7.0,72,0.00,,,0.00,Wunderground v.1.15,2013-06-22 11:57:00,
2013-06-22 08:02:00,74.1,64.5,30.00,SW,226,5.0,7.0,72,0.00,,,0.00,Wunderground v.1.15,2013-06-22 12:02:00,
2013-06-22 08:07:00,74.3,64.7,30.01,SW,224,4.0,7.0,72,0.00,,,0.00,Wunderground v.1.15,2013-06-22 12:07:00,
2013-06-22 08:13:00,74.4,64.8,30.01,SW,218,4.0,5.0,72,0.00,,,0.00,Wunderground v.1.15,2013-06-22 12:13:00,
2013-06-22 08:18:00,74.6,65.0,30.01,SW,221,4.0,6.0,72,0.00,,,0.00,Wunderground v.1.15,2013-06-22 12:18:00,
2013-06-22 08:23:00,74.8,64.8,30.01,SW,227,4.0,5.0,71,0.00,,,0.00,Wunderground v.1.15,2013-06-22 12:23:00,
2013-06-22 08:29:00,75.2,65.1,30.01,WSW,237,4.0,7.0,71,0.00,,,0.00,Wunderground v.1.15,2013-06-22 12:29:00,
2013-06-22 08:35:00,75.5,65.8,30.01,SW,234,4.0,7.0,72,0.00,,,0.00,Wunderground v.1.15,2013-06-22 12:35:00,
2013-06-22 08:40:00,75.8,65.7,30.01,SSW,213,5.0,7.0,71,0.00,,,0.00,Wunderground v.1.15,2013-06-22 12:40:00,
2013-06-22 08:45:00,76.1,66.0,30.02,SSW,210,4.0,7.0,71,0.00,,,0.00,Wunderground v.1.15,2013-06-22 12:45:00,
2013-06-22 08:51:00,76.5,66.4,30.02,SSW,210,4.0,4.0,71,0.00,,,0.00,Wunderground v.1.15,2013-06-22 12:51:00,
2013-06-22 08:56:00,76.8,67.1,30.02,SSW,210,4.0,6.0,72,0.00,,,0.00,Wunderground v.1.15,2013-06-22 12:56:00,
2013-06-22 09:02:00,77.5,67.4,30.02,SW,229,4.0,7.0,71,0.00,,,0.00,Wunderground v.1.15,2013-06-22 13:02:00,
2013-06-22 09:07:00,77.9,67.7,30.02,SW,217,5.0,9.0,71,0.00,,,0.00,Wunderground v.1.15,2013-06-22 13:07:00,
2013-06-22 09:12:00,78.2,67.6,30.02,WSW,240,6.0,8.0,70,0.00,,,0.00,Wunderground v.1.15,2013-06-22 13:12:00,
2013-06-22 09:18:00,78.5,67.9,30.02,SW,219,6.0,9.0,70,0.00,,,0.00,Wunderground v.1.15,2013-06-22 13:18:00,
2013-06-22 09:23:00,78.5,67.9,30.02,SW,226,6.0,7.0,70,0.00,,,0.00,Wunderground v.1.15,2013-06-22 13:23:00,
2013-06-22 09:28:00,78.8,68.2,30.02,SW,225,6.0,10.0,70,0.00,,,0.00,Wunderground v.1.15,2013-06-22 13:28:00,
2013-06-22 09:33:00,79.2,68.6,30.02,WNW,296,5.0,6.0,70,0.00,,,0.00,Wunderground v.1.15,2013-06-22 13:33:00,
2013-06-22 09:39:00,79.3,68.7,30.02,SW,214,5.0,11.0,70,0.00,,,0.00,Wunderground v.1.15,2013-06-22 13:39:00,
2013-06-22 09:44:00,79.3,68.2,30.02,SW,215,5.0,9.0,69,0.00,,,0.00,Wunderground v.1.15,2013-06-22 13:44:00,
2013-06-22 09:49:00,79.4,68.3,30.02,SW,231,5.0,10.0,69,0.00,,,0.00,Wunderground v.1.15,2013-06-22 13:49:00,
2013-06-22 09:54:00,79.2,68.6,30.02,SW,218,6.0,9.0,70,0.00,,,0.00,Wunderground v.1.15,2013-06-22 13:54:00,
2013-06-22 10:00:00,79.0,68.4,30.02,WNW,302,6.0,6.0,70,0.00,,,0.00,Wunderground v.1.15,2013-06-22 14:00:00,
2013-06-22 10:06:00,79.1,68.5,30.03,WSW,242,5.0,7.0,70,0.00,,,0.00,Wunderground v.1.15,2013-06-22 14:06:00,
2013-06-22 10:11:00,79.1,68.5,30.03,SW,223,4.0,8.0,70,0.00,,,0.00,Wunderground v.1.15,2013-06-22 14:11:00,
2013-06-22 10:16:00,79.0,68.8,30.03,WSW,244,4.0,8.0,71,0.00,,,0.00,Wunderground v.1.15,2013-06-22 14:16:00,
2013-06-22 10:21:00,78.8,68.6,30.02,SW,230,5.0,5.0,71,0.00,,,0.00,Wunderground v.1.15,2013-06-22 14:21:00,
2013-06-22 10:27:00,78.7,68.9,30.02,West,259,5.0,7.0,72,0.00,,,0.00,Wunderground v.1.15,2013-06-22 14:27:00,
2013-06-22 10:32:00,78.7,68.9,30.02,WSW,238,5.0,6.0,72,0.00,,,0.00,Wunderground v.1.15,2013-06-22 14:32:00,
2013-06-22 10:38:00,79.1,69.3,30.02,WSW,240,4.0,6.0,72,0.00,,,0.00,Wunderground v.1.15,2013-06-22 14:38:00,
2013-06-22 10:43:00,79.7,69.5,30.02,WSW,254,3.0,4.0,71,0.00,,,0.00,Wunderground v.1.15,2013-06-22 14:43:00,
2013-06-22 10:48:00,80.6,69.9,30.02,West,261,3.0,6.0,70,0.00,,,0.00,Wunderground v.1.15,2013-06-22 14:48:00,
2013-06-22 10:53:00,81.1,70.0,30.02,WSW,252,4.0,7.0,69,0.00,,,0.00,Wunderground v.1.15,2013-06-22 14:53:00,
2013-06-22 10:59:00,81.4,70.7,30.02,West,276,6.0,10.0,70,0.00,,,0.00,Wunderground v.1.15,2013-06-22 14:59:00,
2013-06-22 11:04:00,81.3,70.2,30.02,WNW,284,8.0,14.0,69,0.00,,,0.00,Wunderground v.1.15,2013-06-22 15:04:00,
2013-06-22 11:10:00,81.9,70.7,30.01,West,272,7.0,7.0,69,0.00,,,0.00,Wunderground v.1.15,2013-06-22 15:10:00,
2013-06-22 11:15:00,81.9,70.3,30.01,WNW,284,6.0,14.0,68,0.00,,,0.00,Wunderground v.1.15,2013-06-22 15:15:00,
2013-06-22 11:21:00,82.5,71.3,30.02,SW,231,5.0,11.0,69,0.00,,,0.00,Wunderground v.1.15,2013-06-22 15:21:00,
2013-06-22 11:26:00,82.3,70.7,30.01,NW,309,6.0,15.0,68,0.00,,,0.00,Wunderground v.1.15,2013-06-22 15:26:00,
2013-06-22 11:31:00,82.4,70.8,30.02,NW,312,6.0,9.0,68,0.00,,,0.00,Wunderground v.1.15,2013-06-22 15:31:00,
2013-06-22 11:37:00,82.8,71.2,30.01,SW,221,6.0,10.0,68,0.00,,,0.00,Wunderground v.1.15,2013-06-22 15:37:00,
2013-06-22 11:42:00,83.1,70.6,30.01,WNW,286,6.0,8.0,66,0.00,,,0.00,Wunderground v.1.15,2013-06-22 15:42:00,
2013-06-22 11:47:00,82.9,70.8,30.01,West,263,5.0,8.0,67,0.00,,,0.00,Wunderground v.1.15,2013-06-22 15:47:00,
2013-06-22 11:53:00,83.4,70.8,30.01,SW,222,5.0,5.0,66,0.00,,,0.00,Wunderground v.1.15,2013-06-22 15:53:00,
2013-06-22 11:59:00,83.2,71.1,30.01,WSW,249,6.0,14.0,67,0.00,,,0.00,Wunderground v.1.15,2013-06-22 15:59:00,
2013-06-22 12:04:00,83.9,70.9,30.01,West,281,6.0,7.0,65,0.00,,,0.00,Wunderground v.1.15,2013-06-22 16:04:00,
2013-06-22 12:10:00,84.0,71.0,30.02,WSW,251,5.0,5.0,65,0.00,,,0.00,Wunderground v.1.15,2013-06-22 16:10:00,
2013-06-22 12:16:00,83.7,71.1,30.02,SW,234,5.0,6.0,66,0.00,,,0.00,Wunderground v.1.15,2013-06-22 16:16:00,
2013-06-22 12:21:00,83.9,70.9,30.02,West,268,6.0,6.0,65,0.00,,,0.00,Wunderground v.1.15,2013-06-22 16:21:00,
2013-06-22 12:27:00,84.8,71.3,30.02,West,266,5.0,7.0,64,0.00,,,0.00,Wunderground v.1.15,2013-06-22 16:27:00,
2013-06-22 12:32:00,84.9,70.9,30.02,WSW,242,5.0,8.0,63,0.00,,,0.00,Wunderground v.1.15,2013-06-22 16:32:00,
2013-06-22 12:38:00,85.4,71.4,30.02,WSW,237,5.0,8.0,63,0.00,,,0.00,Wunderground v.1.15,2013-06-22 16:38:00,
2013-06-22 12:44:00,84.8,70.8,30.02,SW,217,5.0,9.0,63,0.00,,,0.00,Wunderground v.1.15,2013-06-22 16:44:00,
2013-06-22 12:49:00,84.9,71.4,30.02,West,275,5.0,9.0,64,0.00,,,0.00,Wunderground v.1.15,2013-06-22 16:49:00,
2013-06-22 12:54:00,85.1,70.6,30.02,WNW,288,5.0,10.0,62,0.00,,,0.00,Wunderground v.1.15,2013-06-22 16:54:00,
2013-06-22 13:00:00,85.7,70.7,30.02,West,267,5.0,5.0,61,0.00,,,0.00,Wunderground v.1.15,2013-06-22 17:00:00,
2013-06-22 13:06:00,85.7,71.2,30.02,West,279,6.0,10.0,62,0.00,,,0.00,Wunderground v.1.15,2013-06-22 17:06:00,
2013-06-22 13:12:00,85.4,70.9,30.02,WSW,245,8.0,14.0,62,0.00,,,0.00,Wunderground v.1.15,2013-06-22 17:12:00,
2013-06-22 13:17:00,84.8,71.3,30.01,SSW,209,7.0,14.0,64,0.00,,,0.00,Wunderground v.1.15,2013-06-22 17:17:00,
2013-06-22 13:22:00,85.3,70.8,30.01,West,261,6.0,7.0,62,0.00,,,0.00,Wunderground v.1.15,2013-06-22 17:22:00,
2013-06-22 13:28:00,86.6,72.5,30.01,WSW,248,5.0,7.0,63,0.00,,,0.00,Wunderground v.1.15,2013-06-22 17:28:00,
2013-06-22 13:33:00,86.8,71.7,30.01,West,270,4.0,5.0,61,0.00,,,0.00,Wunderground v.1.15,2013-06-22 17:33:00,
2013-06-22 13:39:00,85.7,71.7,30.00,SW,228,5.0,6.0,63,0.00,,,0.00,Wunderground v.1.15,2013-06-22 17:39:00,
2013-06-22 13:44:00,85.7,72.6,30.00,WSW,243,4.0,4.0,65,0.00,,,0.00,Wunderground v.1.15,2013-06-22 17:44:00,
2013-06-22 13:49:00,85.9,71.8,30.00,SSW,196,3.0,5.0,63,0.00,,,0.00,Wunderground v.1.15,2013-06-22 17:49:00,
2013-06-22 13:55:00,85.7,72.1,30.00,SSE,157,5.0,9.0,64,0.00,,,0.00,Wunderground v.1.15,2013-06-22 17:55:00,
2013-06-22 14:00:00,85.1,71.5,30.00,SSW,209,6.0,8.0,64,0.00,,,0.00,Wunderground v.1.15,2013-06-22 18:00:00,
2013-06-22 14:06:00,85.7,72.1,30.00,SSW,196,5.0,8.0,64,0.00,,,0.00,Wunderground v.1.15,2013-06-22 18:06:00,
2013-06-22 14:11:00,85.6,72.0,30.00,SW,232,6.0,11.0,64,0.00,,,0.00,Wunderground v.1.15,2013-06-22 18:11:00,
2013-06-22 14:16:00,86.2,72.1,30.00,SW,229,7.0,11.0,63,0.00,,,0.00,Wunderground v.1.15,2013-06-22 18:16:00,
2013-06-22 14:22:00,85.9,71.8,30.00,WSW,245,7.0,9.0,63,0.00,,,0.00,Wunderground v.1.15,2013-06-22 18:22:00,
2013-06-22 14:27:00,85.9,72.3,30.00,SW,215,8.0,9.0,64,0.00,,,0.00,Wunderground v.1.15,2013-06-22 18:27:00,
2013-06-22 14:32:00,85.8,72.2,30.00,WSW,238,8.0,10.0,64,0.00,,,0.00,Wunderground v.1.15,2013-06-22 18:32:00,
2013-06-22 14:37:00,85.8,71.7,30.00,SW,225,8.0,10.0,63,0.00,,,0.00,Wunderground v.1.15,2013-06-22 18:37:00,
2013-06-22 14:43:00,86.4,72.3,30.00,SW,229,8.0,11.0,63,0.00,,,0.00,Wunderground v.1.15,2013-06-22 18:43:00,
2013-06-22 14:48:00,85.6,72.0,30.00,SSW,202,7.0,11.0,64,0.00,,,0.00,Wunderground v.1.15,2013-06-22 18:48:00,
2013-06-22 14:54:00,85.6,72.5,30.00,South,188,7.0,8.0,65,0.00,,,0.00,Wunderground v.1.15,2013-06-22 18:54:00,
2013-06-22 14:59:00,84.7,72.1,30.00,SSW,204,7.0,11.0,66,0.00,,,0.00,Wunderground v.1.15,2013-06-22 18:59:00,
2013-06-22 15:04:00,84.5,72.3,29.99,WSW,242,7.0,7.0,67,0.00,,,0.00,Wunderground v.1.15,2013-06-22 19:04:00,
2013-06-22 15:10:00,85.0,72.8,29.99,WSW,248,5.0,5.0,67,0.00,,,0.00,Wunderground v.1.15,2013-06-22 19:10:00,
2013-06-22 15:15:00,85.5,72.8,29.99,WSW,253,5.0,6.0,66,0.00,,,0.00,Wunderground v.1.15,2013-06-22 19:15:00,
2013-06-22 15:20:00,85.0,72.8,29.98,SW,228,4.0,5.0,67,0.00,,,0.00,Wunderground v.1.15,2013-06-22 19:20:00,
2013-06-22 15:26:00,84.3,72.6,29.98,SW,217,5.0,7.0,68,0.00,,,0.00,Wunderground v.1.15,2013-06-22 19:26:00,
2013-06-22 15:31:00,84.5,72.8,29.98,SW,226,5.0,6.0,68,0.00,,,0.00,Wunderground v.1.15,2013-06-22 19:31:00,
2013-06-22 15:36:00,84.7,73.0,29.98,WSW,243,5.0,7.0,68,0.00,,,0.00,Wunderground v.1.15,2013-06-22 19:36:00,
2013-06-22 15:42:00,85.0,72.8,29.98,WSW,252,4.0,10.0,67,0.00,,,0.00,Wunderground v.1.15,2013-06-22 19:42:00,
2013-06-22 15:47:00,85.3,73.1,29.98,West,281,4.0,10.0,67,0.00,,,0.00,Wunderground v.1.15,2013-06-22 19:47:00,
2013-06-22 15:53:00,84.8,73.1,29.97,NW,305,4.0,5.0,68,0.00,,,0.00,Wunderground v.1.15,2013-06-22 19:53:00,
2013-06-22 15:59:00,84.9,73.2,29.97,NW,304,4.0,6.0,68,0.00,,,0.00,Wunderground v.1.15,2013-06-22 19:59:00,
2013-06-22 16:04:00,84.8,72.6,29.97,WNW,296,4.0,8.0,67,0.00,,,0.00,Wunderground v.1.15,2013-06-22 20:04:00,
2013-06-22 16:09:00,84.7,73.0,29.96,WNW,284,4.0,8.0,68,0.00,,,0.00,Wunderground v.1.15,2013-06-22 20:09:00,
2013-06-22 16:15:00,84.9,72.7,29.96,WNW,292,4.0,5.0,67,0.00,,,0.00,Wunderground v.1.15,2013-06-22 20:15:00,
2013-06-22 16:20:00,84.9,72.7,29.96,WSW,250,4.0,8.0,67,0.00,,,0.00,Wunderground v.1.15,2013-06-22 20:20:00,
2013-06-22 16:26:00,84.5,72.3,29.95,WSW,244,4.0,8.0,67,0.00,,,0.00,Wunderground v.1.15,2013-06-22 20:26:00,
2013-06-22 16:31:00,84.3,72.6,29.95,WSW,254,4.0,5.0,68,0.00,,,0.00,Wunderground v.1.15,2013-06-22 20:31:00,
2013-06-22 16:37:00,84.7,72.5,29.94,WSW,254,3.0,5.0,67,0.00,,,0.00,Wunderground v.1.15,2013-06-22 20:37:00,
2013-06-22 16:42:00,84.7,72.5,29.95,WSW,238,2.0,5.0,67,0.00,,,0.00,Wunderground v.1.15,2013-06-22 20:42:00,
2013-06-22 16:47:00,84.7,72.5,29.94,SW,221,3.0,6.0,67,0.00,,,0.00,Wunderground v.1.15,2013-06-22 20:47:00,
2013-06-22 16:53:00,84.0,71.9,29.95,SSE,149,5.0,6.0,67,0.00,,,0.00,Wunderground v.1.15,2013-06-22 20:53:00,
2013-06-22 16:58:00,82.9,71.3,29.95,South,175,4.0,6.0,68,0.00,,,0.00,Wunderground v.1.15,2013-06-22 20:58:00,
2013-06-22 17:03:00,82.2,70.6,29.95,South,172,4.0,4.0,68,0.00,,,0.00,Wunderground v.1.15,2013-06-22 21:03:00,
2013-06-22 17:09:00,81.6,70.4,29.95,SSE,163,3.0,5.0,69,0.00,,,0.00,Wunderground v.1.15,2013-06-22 21:09:00,
2013-06-22 17:14:00,81.2,70.5,29.95,SSE,162,3.0,5.0,70,0.00,,,0.00,Wunderground v.1.15,2013-06-22 21:14:00,
2013-06-22 17:19:00,80.7,70.4,29.95,SE,132,4.0,6.0,71,0.00,,,0.00,Wunderground v.1.15,2013-06-22 21:19:00,
2013-06-22 17:25:00,79.8,70.4,29.94,SE,140,5.0,8.0,73,0.00,,,0.00,Wunderground v.1.15,2013-06-22 21:25:00,
2013-06-22 17:30:00,79.2,70.2,29.95,SSW,198,6.0,8.0,74,0.00,,,0.00,Wunderground v.1.15,2013-06-22 21:30:00,
2013-06-22 17:35:00,78.7,69.3,29.96,SE,144,5.0,8.0,73,0.00,,,0.00,Wunderground v.1.15,2013-06-22 21:35:00,
2013-06-22 17:41:00,78.0,68.6,29.96,South,186,5.0,6.0,73,0.00,,,0.00,Wunderground v.1.15,2013-06-22 21:41:00,
2013-06-22 17:46:00,77.4,68.9,29.97,South,189,6.0,8.0,75,0.00,,,0.00,Wunderground v.1.15,2013-06-22 21:46:00,
2013-06-22 17:51:00,77.1,69.3,29.97,SSW,205,7.0,7.0,77,0.00,,,0.00,Wunderground v.1.15,2013-06-22 21:51:00,
2013-06-22 17:56:00,76.9,69.1,29.97,SSW,207,7.0,8.0,77,0.00,,,0.00,Wunderground v.1.15,2013-06-22 21:56:00,
2013-06-22 18:02:00,76.7,69.3,29.97,SSW,195,6.0,7.0,78,0.00,,,0.00,Wunderground v.1.15,2013-06-22 22:02:00,
2013-06-22 18:07:00,76.7,69.3,29.97,SSW,206,6.0,12.0,78,0.00,,,0.00,Wunderground v.1.15,2013-06-22 22:07:00,
2013-06-22 18:13:00,76.5,69.1,29.97,South,175,7.0,9.0,78,0.00,,,0.00,Wunderground v.1.15,2013-06-22 22:13:00,
2013-06-22 18:18:00,76.3,69.3,29.97,SW,218,7.0,9.0,79,0.00,,,0.00,Wunderground v.1.15,2013-06-22 22:18:00,
2013-06-22 18:23:00,76.1,69.1,29.97,SSW,202,7.0,10.0,79,0.00,,,0.00,Wunderground v.1.15,2013-06-22 22:23:00,
2013-06-22 18:28:00,75.9,68.9,29.96,SSW,202,7.0,10.0,79,0.00,,,0.00,Wunderground v.1.15,2013-06-22 22:28:00,
2013-06-22 18:33:00,75.5,68.9,29.96,SSW,195,6.0,7.0,80,0.00,,,0.00,Wunderground v.1.15,2013-06-22 22:33:00,
2013-06-22 18:39:00,75.3,68.7,29.95,SSW,209,6.0,9.0,80,0.00,,,0.00,Wunderground v.1.15,2013-06-22 22:39:00,
2013-06-22 18:44:00,75.3,68.7,29.96,SW,219,6.0,8.0,80,0.00,,,0.00,Wunderground v.1.15,2013-06-22 22:44:00,
2013-06-22 18:49:00,75.3,68.7,29.95,SW,234,6.0,8.0,80,0.00,,,0.00,Wunderground v.1.15,2013-06-22 22:49:00,
2013-06-22 18:55:00,75.3,68.7,29.95,SSW,213,5.0,6.0,80,0.00,,,0.00,Wunderground v.1.15,2013-06-22 22:55:00,
2013-06-22 19:00:00,75.4,68.8,29.94,SSW,199,5.0,5.0,80,0.00,,,0.00,Wunderground v.1.15,2013-06-22 23:00:00,
2013-06-22 19:06:00,75.4,68.8,29.94,South,184,5.0,6.0,80,0.00,,,0.00,Wunderground v.1.15,2013-06-22 23:06:00,
2013-06-22 19:11:00,75.4,68.8,29.93,SSW,198,5.0,7.0,80,0.00,,,0.00,Wunderground v.1.15,2013-06-22 23:11:00,
2013-06-22 19:16:00,75.4,68.8,29.94,SW,226,6.0,7.0,80,0.00,,,0.00,Wunderground v.1.15,2013-06-22 23:16:00,
2013-06-22 19:21:00,75.4,68.8,29.94,SW,234,5.0,9.0,80,0.00,,,0.00,Wunderground v.1.15,2013-06-22 23:21:00,
2013-06-22 19:26:00,75.3,68.7,29.94,WSW,246,5.0,9.0,80,0.00,,,0.00,Wunderground v.1.15,2013-06-22 23:26:00,
2013-06-22 19:32:00,75.3,68.7,29.94,WSW,238,4.0,6.0,80,0.00,,,0.00,Wunderground v.1.15,2013-06-22 23:32:00,
2013-06-22 19:37:00,75.5,68.9,29.94,SW,231,4.0,6.0,80,0.00,,,0.00,Wunderground v.1.15,2013-06-22 23:37:00,
2013-06-22 19:43:00,75.8,69.2,29.94,SW,233,3.0,5.0,80,0.00,,,0.00,Wunderground v.1.15,2013-06-22 23:43:00,
2013-06-22 19:48:00,76.0,69.4,29.94,SW,234,3.0,5.0,80,0.00,,,0.00,Wunderground v.1.15,2013-06-22 23:48:00,
2013-06-22 19:53:00,76.2,69.2,29.94,WSW,238,3.0,5.0,79,0.00,,,0.00,Wunderground v.1.15,2013-06-22 23:53:00,
2013-06-22 19:59:00,76.4,69.4,29.94,West,261,3.0,5.0,79,0.00,,,0.00,Wunderground v.1.15,2013-06-22 23:59:00,
2013-06-22 20:04:00,76.5,69.5,29.94,WSW,251,3.0,6.0,79,0.00,,,0.00,Wunderground v.1.15,2013-06-23 00:04:00,
2013-06-22 20:09:00,76.7,69.7,29.95,SW,232,4.0,9.0,79,0.00,,,0.00,Wunderground v.1.15,2013-06-23 00:09:00,
2013-06-22 20:15:00,77.0,70.0,29.95,SW,226,4.0,5.0,79,0.00,,,0.00,Wunderground v.1.15,2013-06-23 00:15:00,
2013-06-22 20:21:00,76.8,69.4,29.95,SW,232,4.0,9.0,78,0.00,,,0.00,Wunderground v.1.15,2013-06-23 00:21:00,
2013-06-22 20:26:00,76.6,69.6,29.95,SW,226,4.0,9.0,79,0.00,,,0.00,Wunderground v.1.15,2013-06-23 00:26:00,
2013-06-22 20:32:00,76.4,69.0,29.95,SW,226,4.0,5.0,78,0.00,,,0.00,Wunderground v.1.15,2013-06-23 00:32:00,
2013-06-22 20:38:00,76.2,69.2,29.95,SW,226,3.0,5.0,79,0.00,,,0.00,Wunderground v.1.15,2013-06-23 00:38:00,
2013-06-22 20:43:00,76.1,69.1,29.95,SW,224,3.0,4.0,79,0.00,,,0.00,Wunderground v.1.15,2013-06-23 00:43:00,
2013-06-22 20:48:00,76.0,69.0,29.95,SW,219,3.0,4.0,79,0.00,,,0.00,Wunderground v.1.15,2013-06-23 00:48:00,
2013-06-22 20:54:00,75.9,68.9,29.95,SSW,207,4.0,7.0,79,0.00,,,0.00,Wunderground v.1.15,2013-06-23 00:54:00,
2013-06-22 20:59:00,75.8,68.8,29.96,SSW,207,5.0,7.0,79,0.00,,,0.00,Wunderground v.1.15,2013-06-23 00:59:00,
2013-06-22 21:04:00,75.6,68.6,29.96,SW,225,4.0,6.0,79,0.00,,,0.00,Wunderground v.1.15,2013-06-23 01:04:00,
2013-06-22 21:10:00,75.5,68.5,29.96,SW,227,4.0,4.0,79,0.00,,,0.00,Wunderground v.1.15,2013-06-23 01:10:00,
2013-06-22 21:15:00,75.4,68.4,29.96,SW,231,4.0,6.0,79,0.00,,,0.00,Wunderground v.1.15,2013-06-23 01:15:00,
2013-06-22 21:21:00,75.4,68.4,29.96,SW,222,4.0,6.0,79,0.00,,,0.00,Wunderground v.1.15,2013-06-23 01:21:00,
2013-06-22 21:26:00,75.3,68.3,29.96,SW,227,4.0,6.0,79,0.00,,,0.00,Wunderground v.1.15,2013-06-23 01:26:00,
2013-06-22 21:31:00,75.3,68.3,29.97,SW,229,5.0,6.0,79,0.00,,,0.00,Wunderground v.1.15,2013-06-23 01:31:00,
2013-06-22 21:37:00,75.3,68.3,29.97,SW,228,4.0,7.0,79,0.00,,,0.00,Wunderground v.1.15,2013-06-23 01:37:00,
2013-06-22 21:42:00,75.4,68.4,29.97,SW,227,4.0,4.0,79,0.00,,,0.00,Wunderground v.1.15,2013-06-23 01:42:00,
2013-06-22 21:47:00,75.4,68.1,29.97,SW,227,3.0,4.0,78,0.00,,,0.00,Wunderground v.1.15,2013-06-23 01:47:00,
2013-06-22 21:52:00,75.5,68.2,29.97,SW,227,2.0,4.0,78,0.00,,,0.00,Wunderground v.1.15,2013-06-23 01:52:00,
2013-06-22 21:58:00,75.6,67.9,29.97,SW,227,4.0,5.0,77,0.00,,,0.00,Wunderground v.1.15,2013-06-23 01:58:00,
2013-06-22 22:03:00,75.7,68.0,29.98,SW,227,3.0,4.0,77,0.00,,,0.00,Wunderground v.1.15,2013-06-23 02:03:00,
2013-06-22 22:08:00,75.7,67.6,29.98,SW,227,2.0,4.0,76,0.00,,,0.00,Wunderground v.1.15,2013-06-23 02:08:00,
2013-06-22 22:14:00,75.8,67.7,29.99,SW,232,2.0,4.0,76,0.00,,,0.00,Wunderground v.1.15,2013-06-23 02:14:00,
2013-06-22 22:20:00,75.8,67.7,29.99,SW,232,2.0,4.0,76,0.00,,,0.00,Wunderground v.1.15,2013-06-23 02:20:00,
2013-06-22 22:25:00,75.7,67.6,30.00,SW,232,2.0,4.0,76,0.00,,,0.00,Wunderground v.1.15,2013-06-23 02:25:00,
2013-06-22 22:30:00,75.6,67.5,30.00,SW,235,2.0,5.0,76,0.00,,,0.00,Wunderground v.1.15,2013-06-23 02:30:00,
2013-06-22 22:36:00,75.7,67.6,30.00,SW,234,3.0,7.0,76,0.00,,,0.00,Wunderground v.1.15,2013-06-23 02:36:00,
2013-06-22 22:41:00,75.7,67.6,30.00,SW,236,3.0,4.0,76,0.00,,,0.00,Wunderground v.1.15,2013-06-23 02:41:00,
2013-06-22 22:46:00,75.8,67.3,30.00,SW,234,3.0,4.0,75,0.00,,,0.00,Wunderground v.1.15,2013-06-23 02:46:00,
2013-06-22 22:52:00,75.8,67.3,29.99,SW,236,3.0,4.0,75,0.00,,,0.00,Wunderground v.1.15,2013-06-23 02:52:00,
2013-06-22 22:58:00,75.8,67.3,29.99,SW,232,4.0,5.0,75,0.00,,,0.00,Wunderground v.1.15,2013-06-23 02:58:00,
2013-06-22 23:03:00,75.8,67.7,29.99,SSW,209,5.0,6.0,76,0.00,,,0.00,Wunderground v.1.15,2013-06-23 03:03:00,
2013-06-22 23:08:00,75.8,67.7,30.00,SW,227,5.0,6.0,76,0.00,,,0.00,Wunderground v.1.15,2013-06-23 03:08:00,
2013-06-22 23:14:00,75.8,67.7,29.99,SW,234,4.0,5.0,76,0.00,,,0.00,Wunderground v.1.15,2013-06-23 03:14:00,
2013-06-22 23:19:00,75.8,68.1,29.99,WSW,246,4.0,6.0,77,0.00,,,0.00,Wunderground v.1.15,2013-06-23 03:19:00,
2013-06-22 23:24:00,75.2,68.2,29.98,WSW,246,4.0,7.0,79,0.37,,,0.03,Wunderground v.1.15,2013-06-23 03:24:00,
2013-06-22 23:29:00,74.7,68.5,29.98,SW,230,4.0,7.0,81,0.11,,,0.03,Wunderground v.1.15,2013-06-23 03:29:00,
2013-06-22 23:35:00,74.1,69.0,29.98,SW,229,4.0,6.0,84,0.05,,,0.03,Wunderground v.1.15,2013-06-23 03:35:00,
2013-06-22 23:40:00,73.7,68.9,29.98,SW,230,3.0,3.0,85,0.00,,,0.03,Wunderground v.1.15,2013-06-23 03:40:00,
2013-06-22 23:46:00,73.4,69.0,29.98,SW,230,3.0,4.0,86,0.00,,,0.03,Wunderground v.1.15,2013-06-23 03:46:00,
2013-06-22 23:51:00,73.3,68.9,29.98,SW,230,3.0,3.0,86,0.00,,,0.03,Wunderground v.1.15,2013-06-23 03:51:00,
2013-06-22 23:56:00,73.3,69.2,29.98,SW,230,3.0,4.0,87,0.00,,,0.00,Wunderground v.1.15,2013-06-23 03:56:00,